Regional Weather Roundup
Issued by NWS

Home | Current Version | Previous Version | Text Only | Print | Product List | Glossary Off
Versions: 1 2 3 4 5 6 7 8 9 10 11 12 13 14 15 16 17 18 19 20 21 22 23 24 25 26 27 28 29 30 31 32 33 34 35 36 37 38 39 40 41 42 43 44 45 46 47 48 49 50

000
ASUS43 KMPX 241601
RWRMN
WEATHER ROUNDUP FOR MINNESOTA
NATIONAL WEATHER SERVICE TWIN CITIES/CHANHASSEN MN
1100 AM CDT THU JUL 24 2014


NOTE: "FAIR" INDICATES FEW OR NO CLOUDS BELOW 12,000 FEET WITH NO
SIGNIFICANT WEATHER AND/OR OBSTRUCTIONS TO VISIBILITY. N/A MEANS
CURRENT SKY AND/OR WEATHER CONDITIONS ARE NOT AVAILABLE.

MNZ060>063-068>070-241700-
   Twin Cities Metro

CITY           SKY/WX    TMP DP  RH WIND       PRES   REMARKS
TWIN CITIES    MOSUNNY   77  54  44 S6        30.12F
ST PAUL        SUNNY     77  58  51 SE7       30.13F
CRYSTAL        SUNNY     77  52  41 SE8       30.11F
LAKEVILLE      SUNNY     75  57  53 S9        30.13F
EDEN PRAIRIE   SUNNY     79  57  46 SE7       30.11F
SOUTH ST PAUL  SUNNY     76  57  53 S7        30.12F
LAKE ELMO      FAIR      75  61  60 S6        30.14F
$$
MNZ001>005-007-008-013>017-022>024-027-028-241700-
   Northwest Minnesota

CITY           SKY/WX    TMP DP  RH WIND       PRES   REMARKS
BEMIDJI        MOSUNNY   73  55  54 S9        30.10R
HALLOCK        PTSUNNY   72  61  68 S7        30.07R
ROSEAU         MOSUNNY   72  61  68 SW5       30.08S
WARROAD        MOSUNNY   70  61  73 S6        30.08F
THIEF RVR FALL PTSUNNY   72  61  68 SW5       30.09R
CROOKSTON      CLOUDY    72  61  68 SW6       30.07R
FOSSTON        PTSUNNY   70  57  64 S10       30.07F
DETROIT LAKES  PTSUNNY   72  57  60 S12       30.07F
MOORHEAD       PTSUNNY   75  61  60 SE12      30.03F
PARK RAPIDS    PTSUNNY   72  56  57 S8        30.10F
$$
MNZ006-009>011-018-025>026-241700-
   North Central Minnesota

CITY           SKY/WX    TMP DP  RH WIND       PRES   REMARKS
BAUDETTE       MOSUNNY   71  57  61 S8        30.09F
FLAG ISLAND    SUNNY     66  57  72 S7        30.07F
INTL FALLS     CLOUDY    70  52  52 S7        30.10F
WASKISH        MOSUNNY   73  59  60 CALM      30.10R
BIG FORK       PTSUNNY   70  57  64 S5        30.12R
LONGVILLE      MOSUNNY   73  57  56 S5        30.10F
GRAND RAPIDS   MOSUNNY   70  55  60 SE5       30.11F
CRANE LAKE     SUNNY     68  52  56 CALM      30.12F
ORR            MOSUNNY   72  48  43 SE3       30.09S
COOK           MOSUNNY   70  52  52 S3        30.11F
$$
MNZ012-019>021-037-241700-
   Northeast Minnesota

CITY           SKY/WX    TMP DP  RH WIND       PRES   REMARKS
DULUTH         MOSUNNY   71  56  58 SW6       30.12F
ELY            SUNNY     70  46  43 CALM      30.12F
HIBBING        MOSUNNY   74  55  51 VRB6      30.10F
EVELETH        MOSUNNY   72  54  53 S6        30.12F
DULUTH HARBOR  SUNNY     63  57  82 E5        30.13F
TWO HARBORS    SUNNY     70  54  56 S8        30.11F
SILVER BAY     SUNNY     70  55  60 SE7       30.11F
GRAND MARAIS     N/A     55  48  77 SW6       30.12F
G MARAIS ARPRT SUNNY     66  45  45 S6        30.15F
$$
MNZ029>031-032-039>041-046>048-054>057-064-241700-
   West Central Minnesota

CITY           SKY/WX    TMP DP  RH WIND       PRES   REMARKS
FERGUS FALLS   PTSUNNY   73  52  46 SE14      30.05F
WHEATON        PTSUNNY   70  57  64 SE12G18   30.06S
MORRIS         PTSUNNY   73  61  64 SE9       30.06S
ALEXANDRIA     MOSUNNY   73  53  49 SE14      30.10F
ELBOW LAKE     FAIR      72  58  60 SE13      30.07S
WADENA         PTSUNNY   72  55  56 S9        30.08F
GLENWOOD       MOSUNNY   75  54  46 S12       30.10S
APPLETON       MOSUNNY   77  54  44 S13       30.07S
BENSON         MOSUNNY   75  57  53 S12       30.08S
ORTONVILLE     MOSUNNY   73  55  53 SE14      30.04F
MADISON        MOSUNNY   79  59  50 SE13      30.06F
WILLMAR        FAIR      75  55  50 SE9       30.10F
$$
MNZ033>034-036-042>043-049>051-058-059-241700-
   Central Minnesota

CITY           SKY/WX    TMP DP  RH WIND       PRES   REMARKS
ST CLOUD       MOSUNNY   77  57  50 SE9       30.09F
SAUK CENTRE    FAIR      74  53  47 SE10      30.10S
PAYNESVILLE    MOSUNNY   72  56  57 SE9       30.10F
AITKIN         PTSUNNY   77  57  50 S8        30.09F
PINE RIVER     MOSUNNY   72  57  60 S5        30.13F
BRAINERD       SUNNY     73  52  47 S10       30.10F
STAPLES        MOSUNNY   72  54  53 SE7       30.10S
LONG PRAIRIE   FAIR      72  54  53 E7        30.10F
LITTLE FALLS   MOSUNNY   72  54  53 SE6       30.09F
LITCHFIELD     MOSUNNY   75  57  53 S5        30.10F
BUFFALO        MOSUNNY   76  52  43 SE7       30.11F
MAPLE LAKE     MOSUNNY   77  59  54 SE6       30.10F
$$
MNZ037-044-045-052-053-241700-
   East Central Minnesota

CITY           SKY/WX    TMP DP  RH WIND       PRES   REMARKS
PRINCETON      MOSUNNY   79  54  41 S6        30.11F
MORA           SUNNY     73  57  56 S6        30.14F
CAMBRIDGE      MOSUNNY   79  57  47 S9G16     30.10F
RUSH CITY      SUNNY     75  58  56 S3        30.12F
MOOSE LAKE     SUNNY     72  57  60 SW6       30.09F
HINCKLEY       FAIR      73  61  64 S7        30.12F
CLOQUET        MOSUNNY   70  55  60 SE6       30.12F
MCGREGOR       SUNNY     73  54  49 S6        30.11F
$$
MNZ071>073-080-081-089-090-097-098-241700-
   Southwest Minnesota

CITY           SKY/WX    TMP DP  RH WIND       PRES   REMARKS
MONTEVIDEO     SUNNY     75  57  53 S9        30.09S
GRANITE FALLS  MOSUNNY   74  58  57 SE9       30.10R
CANBY          MOSUNNY   75  59  57 S8G17     30.08R
MARSHALL       SUNNY     75  57  53 S15       30.08S
REDWOOD FALLS  SUNNY     77  58  51 SE12      30.09S
OLIVIA         MOSUNNY   75  55  50 SE9       30.09S
PIPESTONE      MOSUNNY   70  61  73 S10       30.09S
WINDOM         MOSUNNY   75  57  53 S9        30.10S
WORTHINGTON    MOSUNNY   72  57  60 S12G18    30.11S
JACKSON        MOSUNNY   77  57  50 S9        30.11F
TRACY          SUNNY     76  60  57 S9        30.09F
SLAYTON        SUNNY     73  56  56 S15       30.10
$$
MNZ065>067-074>077-082>085-091>093-241700-
   South Central Minnesota

CITY           SKY/WX    TMP DP  RH WIND       PRES   REMARKS
MANKATO        MOSUNNY   75  57  53 SE9       30.12F
NEW ULM        MOSUNNY   75  61  60 S8        30.10S
ST JAMES       MOSUNNY   75  57  53 S7        30.12S
FAIRMONT       MOSUNNY   75  57  53 S12       30.11F
GLENCOE        SUNNY     78  54  43 S5        30.11S
FARIBAULT      SUNNY     81  52  36 S6        30.14S
OWATONNA       MOSUNNY   77  55  47 S8        30.14F
WASECA         MOSUNNY   77  54  44 S9        30.15F
ALBERT LEA     MOSUNNY   77  57  50 S7        30.15F
$$
MNZ078>079-086>088-094>096-241700-
   Southeast Minnesota

CITY           SKY/WX    TMP DP  RH WIND       PRES   REMARKS
ROCHESTER      MOSUNNY   75  57  53 VRB6      30.17F
RED WING       SUNNY     79  57  47 SE5       30.13F
STANTON        SUNNY     76  57  50 S7        30.13S
DODGE CENTER   MOSUNNY   73  59  60 S7        30.16S
WINONA         MOSUNNY   73  61  64 E6        30.16S
AUSTIN         MOSUNNY   75  55  50 SW7       30.16S
PRESTON        MOSUNNY   73  62  68 SW3       30.18S
$$
ABBREVIATIONS USED IN REMARKS
   TC - TEMPERATURES IN CELSIUS
  WCI - WIND CHILL INDEX
   HX - HEAT INDEX
  VSB - VISIBILITY
$$


USA.gov is the U.S. government's official web portal to all federal, state and local government web resources and services.